Location: Grossmotten
(48.5500°N, 15.3833°E)
Time: 15:11:55
(UTC+00:00)

Cosmos 2084 Rocket - Pass Details

Date: 15 November 2019
Orbit: 573 x 609 km, 62.8° (Epoch: 07 December)

Event Time Altitude Azimuth Distance (km) Brightness Sun altitude
Exits shadow 03:40:55 57° 359° (N) 722 3.8 -23.9°
Drops below altitude 10° 03:44:44 10° 38° (NE) 1,969 6.6 -23.2°
Sets 03:47:02 0° 42° (NE) 2,878 7.5 -22.8°
